Location: Unspecified
(0.0000°N, 0.0000°E)
Time: 08:22:33
(UTC+00:00)

deb DAPP - Pass Details

Date: 17 December 2025
Orbit: 606 x 945 km, 99.0° (Epoch: 14 January)

Event Time Altitude Azimuth Distance (km) Brightness Sun altitude
Rises 19:04:48 0° 166° (SSE) 3,216 ? -15.7°
Reaches altitude 10° 19:07:00 10° 166° (SSE) 2,338 ? -16.2°
Maximum altitude 19:12:13 85° 76° (ENE) 842 ? -17.3°
Drops below altitude 10° 19:17:53 10° 349° (NNW) 2,540 ? -18.6°
Sets 19:20:22 0° 348° (NNW) 3,514 ? -19.2°
